Погода в Разночиновке

Россия / Астраханская область     46°38′10″N   47°54′25″E
темп.,
°C
ветер,
м/с
пор.,
м/с
влажн.,
%
обл.,
%
осадки,
мм/ч
давл.,
гПа
погр.,
м
19 апреля, пн
пн1901:00+14сз227598 0.0 101768
04:00+13ссв118295 0.0 101652
07:00+13ссв117551 0.0 101670
10:00+17ю225899 0.0 1016819
13:00+20юз3446100 0.0 10151482
16:00+21юз5544100 0.0 10141679
19:00+17з5773100 0.3 1015589
22:00+15юз4586100 1.1 1016288
20 апреля, вт
вт2001:00+14юз3588100 0.0 1016249
04:00+14ююв1189100 0.0 101524
07:00+14вюв358891 0.0 1015194
10:00+15вюв4781100 0.8 1016508
13:00+17вюв91270100 0.3 1014775
16:00+20вюв111349100 0.3 1013999
19:00+16вюв101757100 0.0 1012683
22:00+15вюв91759100 0.1 1014634
21 апреля, ср
ср2101:00+14вюв101960100 0.1 1013634
04:00+14юв3863100 0.1 1015482
07:00+13вюв51170100 0.1 1015558
10:00+12вюв71080100 2.0 1016412
13:00+14вюв667275 0.1 1017656
16:00+17в6654100 0.1 1017941
19:00+16св5659100 0.2 1018796
22:00+13с6973100 0.6 1018373
22 апреля, чт
чт2201:00+11ссз58763 0.0 1018215
04:00+10ссз6107797 0.0 1019260
07:00+11сз496990 0.0 1020292
10:00+14ссз7948100 0.0 1020503
13:00+16ссз4542100 0.0 1022819
16:00+16сз5651100 0.1 1021645
19:00+17с354847 0.1 1022179
22:00+14с3356100 0.1 102238
23 апреля, пт
пт2301:00+12с3361100 0.0 102130
04:00+11ссз4767100 0.0 1020151
07:00+11ссз4759100 0.0 1021239
10:00+15с5650100 0.0 1021611
13:00+18ссз5643100 0.0 10201431
16:00+19сз674061 0.0 10191790
19:00+18сз45443 0.0 1019543
22:00+12ссв34620 0.0 102095